Powrót do katalogu

ONEWEB-0588

AktywnyŁącznośćPO
NORAD 55153·PAYLOAD·🇬🇧 United Kingdom

Wystrzelony Jan 10, 2023 z Cape Canaveral Space Force Station

Loading…

Następne Przeloty (najbliższe 24 godziny)

TLE

ŚwieżeSource: CelesTrak SupGP

Epoka: Sep 14, 2026, 10:13 UTC

1 55153C 23004P   26257.42619630 -.00000524  00000+0 -13296-2 0  2573
2 55153  87.9155 317.7344 0001692 113.2375 300.5578 13.18683138    16

Śledź ONEWEB-0588 w czasie rzeczywistym z AllMySat

Download on the App Store